Regional Weather Roundup
Issued by NWS Austin/San Antonio, TX

Current Version | Previous Version | Text Only | Print | Product List | Glossary On
Versions: 1 2 3 4 5 6 7 8 9 10 11 12 13 14 15 16 17 18 19 20 21 22 23 24 25 26 27 28 29 30 31 32 33 34 35 36 37 38 39 40 41 42 43 44 45 46 47 48 49 50
000
ASUS44 KEWX 280101
RWREWX
SOUTH TEXAS REGIONAL WEATHER ROUNDUP
NATIONAL WEATHER SERVICE AUSTIN/SAN ANTONIO TX
700 PM CST TUE FEB 27 2024

NOTE: "FAIR" INDICATED FEW OR NO CLOUDS BELOW 12,000 FEET WITH NO
SIGNIFICANT WEATHER AND/OR OBSTRUCTIONS TO VISIBILITY.

* - THESE STATIONS ARE NOT NWS OR FAA STATIONS...AND ARE NOT SUBJECT
    TO NWS AND FAA QUALITY CONTROL.

TXZ171-172-183>190-280200-
TEXAS HILL COUNTRY AND EDWARDS PLATEAU

CITY           SKY/WX    TMP DP  RH WIND       PRES   REMARKS
JUNCTION       MOCLDY    82  40  22 CALM      29.75R
*LLANO         CLOUDY    73  63  68 CALM      29.71F
BURNET         CLOUDY    76  66  71 CALM      29.74S
*HORSESHOE BAY CLOUDY    77  64  64 S5        29.72F
*LAGO VISTA    CLOUDY    74  66  77 S5        29.75R
*KERRVILLE     CLOUDY    75  63  65 SE6       29.75S
*FREDERICKSBRG CLOUDY    73  64  72 CALM      29.75F
*ROCKSPRINGS   MOCLDY    73  55  53 S5        29.84R
*BOERNE        MOCLDY    73  61  64 S3        29.76S
*CASTROVILLE   MOCLDY    81  61  51 S3        29.74R HAZE
HONDO          CLOUDY    79  61  53 SE5       29.72S
*UVALDE        CLOUDY    77  61  58 CALM      29.75R
DEL RIO        MOCLDY    82  56  40 VRB5      29.72R
*LAUGHLIN AFB  NOT AVBL
*SPOFFORD      NOT AVBL
CARRIZO SPRGS  CLOUDY    84  54  34 E3        29.69R
*FAITH RANCH   CLEAR     84  52  32 E8        29.70R
$$

TXZ173-191>194-202-209-217>225-228-280200-
CENTRAL AND SOUTH CENTRAL TEXAS

CITY           SKY/WX    TMP DP  RH WIND       PRES   REMARKS
GEORGETOWN     CLOUDY    75  65  70 SE5       29.74R
*TAYLOR        CLOUDY    74  65  74 S7        29.72F
AUSTIN/BERGSTM CLOUDY    74  66  76 SE3       29.71R
AUSTIN/MABRY   CLOUDY    76  65  68 CALM      29.73
*PFLUGERVILLE  NOT AVBL
SAN MARCOS     CLOUDY    74  65  73 E5        29.73R
NEW BRAUNFELS  MOCLDY    74  65  73 S7        29.71R
*RANDOLPH AFB  MOCLDY    76  65  70 S3        29.69S
*SEGUIN        MOCLDY    76  67  73 SE5       29.68S
SAN ANTONIO    MOCLDY    78  64  61 S6        29.72R
STINSON FIELD  MOCLDY    79  65  62 SE3       29.70R
*KELLY FIELD   MOCLDY    79  64  61 SE5       29.69R
*PLEASANTON    MOCLDY    81  63  54 CALM      29.73S
*KENEDY        MOCLDY    79  66  65 SE3       29.73R
*LA GRANGE     CLOUDY    75  72  92 S7        29.71R
*GIDDINGS      CLOUDY    75  67  77 CALM      29.73R
*GONZALES      CLOUDY    79  67  68 S3        29.72R
$$

TXZ163>164-176>182-195>201-210>213-226-227-235-280200-
SOUTHEAST TEXAS

CITY           SKY/WX    TMP DP  RH WIND       PRES   REMARKS
COLLEGE STN    CLOUDY    77  67  71 S9        29.72R
*BRYAN         CLOUDY    76  67  72 S7        29.74R
*CALDWELL      CLOUDY    73  66  78 S6        29.72S
*CROCKETT      CLOUDY    77  68  73 S8        29.70S
*BRENHAM       CLOUDY    76  68  76 S10       29.73R
HUNTSVILLE     CLOUDY    76  66  71 S13       29.72S
CONROE         CLOUDY    76  66  71 S13       29.74R
HOUSTON BUSH   CLOUDY    76  67  73 S14G21    29.75S
HOUSTON HOBBY  CLOUDY    75  67  76 S15G25    29.75F
*HOUSTON SW AP CLOUDY    74  69  84 S10       29.77F
PEARLAND       CLOUDY    74  68  81 S12G24    29.78S
HOUSTON HOOKS  CLOUDY    76  67  73 S8G21     29.74R
ELLINGTON FLD  CLOUDY    73  68  83 S14       29.76R
SUGAR LAND     CLOUDY    75  69  81 S12       29.75S
*HOUSTON EXEC  CLOUDY    73  70  88 SW17      29.76R
*CLEVELAND MUN   N/A     77  67  72 S8        29.76S
*WHARTON       CLOUDY   N/A N/A N/A S15       29.76S
*COLUMBUS      CLOUDY    73  68  84 S6        29.75R
*EAGLE LAKE    CLOUDY    73  67  82 MISG      29.75R
$$

TXZ214>216-236>238-280200-
THE UPPER TEXAS COAST

CITY           SKY/WX    TMP DP  RH WIND       PRES   REMARKS
*ORANGE        CLOUDY    72  68  87 S10       29.84R
PORT ARTHUR    CLOUDY    71  68  90 S13       29.80R
GALVESTON      CLOUDY    69  67  93 S12       29.80R
ANGLETON       CLOUDY    72  70  93 S13       29.77F
*BAY CITY      CLOUDY    69  65  86 S12       29.77S
PALACIOS       CLOUDY    71  68  90 S12       29.74S
$$

TXZ229>234-239>247-280200-
TEXAS COASTAL BEND AND RIO GRANDE PLAINS

CITY           SKY/WX    TMP DP  RH WIND       PRES   REMARKS
VICTORIA       MOCLDY    71  67  87 S10       29.74R
*BEEVILLE      MOCLDY    74  66  75 E6        29.72R
ROCKPORT       PTCLDY    71  68  90 S14G26    29.72S FOG
*PORT ARANSAS  MOCLDY    69  67  93 S16G23    29.74R FOG
*PORT LAVACA   CLOUDY    73  70  88 S14G22    29.74R
*INGLESIDE     NOT AVBL
CORPUS CHRISTI CLOUDY    75  68  78 SE16      29.70R
CORPUS NAS     NOT AVBL
*ROBSTOWN      PTCLDY    79  69  71 SE9       29.71R
ALICE          MOCLDY    78  64  61 CALM      29.69R
KINGSVILLE NAS MOCLDY    84  70  62 S12       29.70R
COTULLA        CLOUDY    83  59  44 E6        29.69S
LAREDO         CLOUDY    85  56  37 E7        29.68R
$$

TXZ248>255-280200-
DEEP SOUTH TEXAS

CITY           SKY/WX    TMP DP  RH WIND       PRES   REMARKS
BROWNSVILLE    PTCLDY    76  71  85 S21G28    29.75R
PORT ISABEL    PTCLDY    75  69  81 S17G25    29.75R
HARLINGEN      PTCLDY    76  68  76 S15G24    29.72R
*HEBBRONVILLE  PTCLDY    83  63  51 SE7       29.71S HAZE
MCALLEN        PTCLDY    81  69  67 SE14      29.72R
*WESLACO       PTCLDY    79  69  71 SE14G21   29.72R
FALFURRIAS     MOCLDY    83  72  69 SE10      29.68S
EDINBURG       PTCLDY    79  70  73 SE12      29.70R
*ZAPATA        PTCLDY    86  54  33 SE3       29.69S
$$

TXZ213>215-236>238-242>244-246-247-251-254-255-280200-
CMAN STATIONS

STATION/POSITION TIME  TEMP    WIND        PRES    WAVE
                       AIR SEA DIR/SP/G            HT/PER
                 (UTC) (F)     (DEG/KT/KT) (MB)    (FT/S)
SEA RIM ST PARK  0000   68     160/  7/  8 1009.1
NORTH JETTY/GLS  0030   69 65  180/  9/ 10 1007.9
EAGLE POINT      0030   76 70  200/ 14/ 19 1008.1
MORGANS POINT    0030   71 68  160/  8/ 13 1007.7
PORT O`CONNOR    0030   70 70  150/ 20/ 23 1006.2
PORT ARANSAS     0000   68     160/ 21/ 23   N/A
BAFFIN BAY       0030   72 76  140/ 17/ 20 1005.3
PORT ISABEL      0030   74 70  180/ 14/ 20 1007.1
$$



USA.gov is the U.S. government's official web portal to all federal, state and local government web resources and services.